HULIANWANG DIGUI-172

导读

HULIANWANG DIGUI-172(NORAD编号69575,国际标识2026-137D)是中国星网GW低轨卫星互联网星座组网卫星,2026年6月17日在海南商业航天发射场随长征十二号运载火箭发射的卫星互联网低轨22组卫星之一,当前在轨运行稳定。 该卫星运行于高度约1067千米的近圆轨道,倾角50°,轨道周期约106.6分钟,主要用于全球低延时宽带通信服务,支撑空天地一体化网络建设,是我国卫星互联网规模化部署的组成节点。

Basic Information
目录编号:
69575
目录名称:
HULIANWANG DIGUI-172
国际标识:
2026-137D
轨道中心:
EARTH
卫星名称:
HULIANWANG DIGUI-172
卫星全名:
HULIANWANG DIGUI-172
卫星状态:
在轨 (已飞行80 天)
发射日期:
2026-06-17 UTC
国别 :
中国 (CN)
星等 :
--
Orbit Information
数据来源 国际轨道数据
星历时间: 2026-09-05T05:42:44+0800
10小时前
查看轨道信息
半长轴: 7527.446km
偏心率: 0.0000063
轨道倾角: 49.999°
近地点辐角 279.719°
升交点赤经 309.983°
平近点角 80.368°
近地点: 1149.261km
远地点: 1149.357km
周期: 108.326分钟
每日圈数: 13.293254
Detailed Information
使用方式:
暂无
2D Orbit Map
3D Orbit Map
Orbit Altitude Analysis Chart
Orbit Inclination Analysis Chart
Orbit Comprehensive Analysis Chart
View Comprehensive Chart